Карточка аэропорта UNKL

Внимание!
Информация на этой странице в стадии наполнения.
Если вы не увидели какой-то информации, или заметили неточность - пожалуйста сообщите нам!
Спасибо!
Команда RU-STAFF
Название аэропортаЕмельяново
Название аэропорта (англ.)Yemelyanovo
Превышение942 ft. (287.1 m.)
Координаты56°10.386', 92°29.598'
Высота перехода7500ft
Эшелон переходаFL090
Коды ответчика5320-5377
Зона ОрВДКрасноярск РПИ (UNKL)
Данные METARUNKL 191230Z 00000MPS CAVOK 21/20 Q0999 R29/290055 NOSIG RMK QFE724
Проноз погоды (TAF)UNKL 191059Z 1912/2012 25003MPS 9999 BKN016CB TEMPO 1912/1915 31007G16MPS 2500 -TSRA BKN010 BKN016CB TEMPO 1922/2001 1000 BR BKN002 BKN016CB BECMG 2003/2006 -TSRA BECMG 2007/2010 NSW
NOTAMshow/hide NOTAM
AWOS   TABLE

Информация о ВПП

ВПП Длина ВПП (м.) Покрытие Курс ВПП Частота ILS
113700Асфальтобетон109110.5
293700Асфальтобетон289111.7

Диспетчерские позиции

Позывной Наименование органа УВД Частота
UNKL_TWRКрасноярск-Вышка118.3
UNKL_R_APPКрасноярск-Круг122.0
UNKL_APPКрасноярск-Подход127.7
UNKL_GNDКрасноярск-Руление121.9



Спутниковое изображение